User: anonymous   Login
Location: Grange Rosano
(44.4500°N, 6.9667°E)
Time: 16:02:25
(UTC+00:00)
Language:

Nadezhda 1 Rocket - Orbit

View from above orbital plane
View from above orbital plane
View from above satellite
View from above satellite

Ground track
Ground track

The orbit data is extracted from the following two-line orbital elements,

1 20104U 89050B   22229.41054161  .00000155  00000-0  14076-3 0  9990
2 20104  82.9553 211.0217 0042302 299.6734  60.0215 13.77361743664390
Epoch (UTC): 17 August 2022 09:51:10
Eccentricity: 0.0042302
inclination: 82.9553°
perigee height: 942 km
apogee height: 1004 km
right ascension of ascending node: 211.0217°
argument of perigee: 299.6734°
revolutions per day: 13.77361743
mean anomaly at epoch: 60.0215°
orbit number at epoch: 66439

The dashed part of the orbit path shows where the satellite is in the earth's shadow,  

DLR